Location: Toronto
(43.6667°N, 79.4167°W)
Time: 10:49:14
(UTC-04:00)

X-37B - Pass Details

Date: 23 June 2021
Orbit: 383 x 392 km, 45.0° (Epoch: 01 July)

Event Time Altitude Azimuth Distance (km) Brightness Sun altitude
Exits shadow 04:32:09 15° 219° (SW) 1,148 2.3 -9.7°
Maximum altitude 04:32:18 15° 216° (SW) 1,146 2.3 -9.7°
Drops below altitude 10° 04:34:11 10° 179° (S) 1,400 3.0 -9.5°
Sets 04:36:51 0° 154° (SSE) 2,251 4.3 -9.2°
